| time (UTC) | temp F | wind direction | speed MPH | gust MPH | rain 1hr in | rain 24hr in | rain mn in | humidity % | barometer mb |
| 20260509054600 | 51 | 0.0 | 0.0 | 0.00 | 0.00 | 0.00 | 66 | 1014.4 | |
| 20260509053557 | 51 | 0.0 | 0.0 | 0.00 | 0.00 | 0.00 | 65 | 1014.5 | |
| 20260509052614 | 52 | 0.0 | 0.0 | 0.00 | 0.00 | 0.00 | 65 | 1014.8 | |
| 20260509051551 | 52 | 0.0 | 0.0 | 0.00 | 0.00 | 0.00 | 65 | 1014.8 | |
| 20260509050547 | 52 | 0.0 | 0.0 | 0.00 | 0.00 | 0.00 | 63 | 1014.9 | |
| 20260509045543 | 52 | 0.0 | 0.0 | 0.00 | 0.00 | 0.00 | 63 | 1015.0 | |
| 20260509044539 | 52 | 0.0 | 0.0 | 0.00 | 0.00 | 0.00 | 62 | 1015.0 | |
| 20260509043536 | 53 | 0.0 | 0.0 | 0.00 | 0.00 | 0.00 | 62 | 1015.0 | |
| 20260509042533 | 53 | 0.0 | 0.0 | 0.00 | 0.00 | 0.00 | 61 | 1015.0 | |
| 20260509041559 | 53 | 0.0 | 0.0 | 0.00 | 0.00 | 0.00 | 60 | 1015.1 | |
| 20260509040555 | 53 | 0.0 | 0.0 | 0.00 | 0.00 | 0.00 | 60 | 1015.1 | |
| 20260509035551 | 53 | 0.0 | 0.0 | 0.00 | 0.00 | 0.00 | 60 | 1015.0 | |
| 20260509034609 | 53 | 0.0 | 0.0 | 0.00 | 0.00 | 0.00 | 59 | 1015.0 | |
| 20260509033545 | 53 | 0.0 | 0.0 | 0.00 | 0.00 | 0.00 | 59 | 1015.1 | |
| 20260509032542 | 53 | 0.0 | 0.0 | 0.00 | 0.00 | 0.00 | 60 | 1015.0 | |
| 20260509031538 | 54 | 0.0 | 0.0 | 0.00 | 0.00 | 0.00 | 58 | 1015.0 | |
| 20260509030534 | 54 | 0.0 | 0.0 | 0.00 | 0.00 | 0.00 | 57 | 1015.2 | |
| 20260509025531 | 55 | 0.0 | 0.0 | 0.00 | 0.00 | 0.00 | 55 | 1015.1 | |
| 20260509024527 | 55 | 0.0 | 0.0 | 0.00 | 0.00 | 0.00 | 55 | 1015.2 | |
| 20260509023604 | 55 | 0.0 | 0.0 | 0.00 | 0.00 | 0.00 | 55 | 1015.3 | |
| 20260509022521 | 55 | 0.0 | 0.0 | 0.00 | 0.00 | 0.00 | 53 | 1015.2 | |
| 20260509021517 | 55 | 0.0 | 0.0 | 0.00 | 0.00 | 0.00 | 53 | 1015.3 | |
| 20260509020614 | 56 | 0.0 | 0.0 | 0.00 | 0.00 | 0.00 | 51 | 1015.2 | |
| 20260509015611 | 56 | 0.0 | 0.0 | 0.00 | 0.00 | 0.00 | 47 | 1015.3 | |
| 20260509014627 | 56 | 0.0 | 0.0 | 0.00 | 0.00 | 0.00 | 46 | 1015.3 | |
| 20260509013604 | 57 | 0.0 | 0.0 | 0.00 | 0.00 | 0.00 | 47 | 1015.2 | |
| 20260509012600 | 57 | 0.0 | 0.0 | 0.00 | 0.00 | 0.00 | 46 | 1015.1 | |
| 20260509011558 | 58 | 0.0 | 0.0 | 0.00 | 0.00 | 0.00 | 45 | 1015.0 | |
| 20260509010553 | 58 | 0.0 | 0.0 | 0.00 | 0.00 | 0.00 | 43 | 1015.0 | |
| 20260509005550 | 58 | 0.0 | 0.0 | 0.00 | 0.00 | 0.00 | 40 | 1014.8 | |
| 20260509004607 | 59 | 0.0 | 0.0 | 0.00 | 0.00 | 0.00 | 40 | 1014.8 | |
| 20260509003543 | 60 | 0.0 | 0.0 | 0.00 | 0.00 | 0.00 | 40 | 1014.8 | |
| 20260509002540 | 60 | 0.0 | 0.0 | 0.00 | 0.00 | 0.00 | 40 | 1014.6 | |
| 20260509001536 | 61 | 0.0 | 0.0 | 0.00 | 0.00 | 0.00 | 40 | 1014.4 | |
| 20260509000533 | 61 | 0.0 | 0.0 | 0.00 | 0.00 | 0.00 | 44 | 1014.6 | |
| 20260508235550 | 62 | 0.0 | 0.0 | 0.00 | 0.00 | 0.00 | 43 | 1014.5 | |
| 20260508234546 | 62 | 0.0 | 0.0 | 0.00 | 0.00 | 0.00 | 44 | 1014.6 | |
| 20260508233523 | 64 | 0.0 | 0.0 | 0.00 | 0.00 | 0.00 | 44 | 1014.6 | |
| 20260508232519 | 65 | 0.0 | 1.0 | 0.00 | 0.00 | 0.00 | 44 | 1014.8 | |
| 20260508231516 | 65 | 0.0 | 0.0 | 0.00 | 0.00 | 0.00 | 44 | 1014.7 | |
| 20260508230613 | 65 | 270 | 0.0 | 1.0 | 0.00 | 0.00 | 0.00 | 44 | 1014.7 |
| 20260508225610 | 66 | 0.0 | 1.0 | 0.00 | 0.00 | 0.00 | 44 | 1014.7 | |
| 20260508224606 | 66 | 0.0 | 0.0 | 0.00 | 0.00 | 0.00 | 44 | 1014.5 | |
| 20260508223622 | 67 | 0.0 | 0.0 | 0.00 | 0.00 | 0.00 | 44 | 1014.6 | |
| 20260508222600 | 67 | 270 | 0.0 | 2.0 | 0.00 | 0.00 | 0.00 | 44 | 1014.7 |
| 20260508221556 | 67 | 0.0 | 0.0 | 0.00 | 0.00 | 0.00 | 44 | 1014.4 | |
| 20260508220552 | 67 | 0.0 | 0.0 | 0.00 | 0.00 | 0.00 | 44 | 1014.4 | |
| 20260508215548 | 67 | 0.0 | 0.0 | 0.00 | 0.00 | 0.00 | 44 | 1014.5 | |
| 20260508214545 | 67 | 0.0 | 0.0 | 0.00 | 0.00 | 0.00 | 44 | 1014.5 | |
| 20260508213541 | 67 | 0.0 | 0.0 | 0.00 | 0.00 | 0.00 | 44 | 1014.6 | |
| 20260508212538 | 67 | 0.0 | 1.0 | 0.00 | 0.00 | 0.00 | 44 | 1014.5 | |
| 20260508211535 | 67 | 270 | 1.0 | 2.0 | 0.00 | 0.00 | 0.00 | 44 | 1014.5 |
| 20260508210531 | 68 | 270 | 1.0 | 3.0 | 0.00 | 0.00 | 0.00 | 44 | 1014.8 |
| 20260508205528 | 68 | 207 | 1.0 | 4.0 | 0.00 | 0.00 | 0.00 | 44 | 1014.8 |
| 20260508204544 | 68 | 0.0 | 1.0 | 0.00 | 0.00 | 0.00 | 44 | 1015.0 | |
| 20260508203521 | 68 | 270 | 1.0 | 3.0 | 0.00 | 0.00 | 0.00 | 44 | 1015.2 |
| 20260508202518 | 68 | 270 | 1.0 | 2.0 | 0.00 | 0.00 | 0.00 | 44 | 1015.5 |
| 20260508201614 | 68 | 265 | 1.0 | 3.0 | 0.00 | 0.00 | 0.00 | 44 | 1015.5 |
| 20260508200611 | 68 | 180 | 2.0 | 3.0 | 0.00 | 0.00 | 0.00 | 44 | 1015.4 |
| 20260508195608 | 69 | 168 | 1.0 | 2.0 | 0.00 | 0.00 | 0.00 | 44 | 1015.5 |
| 20260508194604 | 69 | 207 | 0.0 | 1.0 | 0.00 | 0.00 | 0.00 | 44 | 1015.6 |
| 20260508193601 | 69 | 270 | 1.0 | 3.0 | 0.00 | 0.00 | 0.00 | 44 | 1015.7 |
| 20260508192617 | 68 | 135 | 1.0 | 2.0 | 0.00 | 0.00 | 0.00 | 44 | 1015.9 |
| 20260508191614 | 67 | 180 | 2.0 | 5.0 | 0.00 | 0.00 | 0.00 | 44 | 1016.2 |
| 20260508190550 | 67 | 243 | 1.0 | 2.0 | 0.00 | 0.00 | 0.00 | 44 | 1016.2 |
| 20260508185607 | 68 | 270 | 2.0 | 4.0 | 0.00 | 0.00 | 0.00 | 44 | 1016.2 |
| 20260508184545 | 68 | 270 | 0.0 | 2.0 | 0.00 | 0.00 | 0.00 | 44 | 1016.3 |
| 20260508183540 | 68 | 225 | 0.0 | 1.0 | 0.00 | 0.00 | 0.00 | 44 | 1016.3 |
| 20260508182537 | 68 | 270 | 0.0 | 2.0 | 0.00 | 0.00 | 0.00 | 44 | 1016.5 |
| 20260508181533 | 68 | 270 | 1.0 | 2.0 | 0.00 | 0.00 | 0.00 | 44 | 1016.7 |
| 20260508180530 | 69 | 0.0 | 0.0 | 0.00 | 0.00 | 0.00 | 44 | 1016.8 | |
| 20260508175527 | 69 | 270 | 1.0 | 3.0 | 0.00 | 0.00 | 0.00 | 44 | 1016.9 |
| 20260508174523 | 71 | 0.0 | 0.0 | 0.00 | 0.00 | 0.00 | 44 | 1017.1 | |
| 20260508173519 | 70 | 270 | 1.0 | 2.0 | 0.00 | 0.00 | 0.00 | 44 | 1017.1 |
| 20260508172516 | 69 | 180 | 1.0 | 3.0 | 0.00 | 0.00 | 0.00 | 44 | 1017.3 |
| 20260508171633 | 71 | 190 | 1.0 | 3.0 | 0.00 | 0.00 | 0.00 | 44 | 1017.3 |
| 20260508170609 | 69 | 270 | 1.0 | 2.0 | 0.00 | 0.00 | 0.00 | 44 | 1017.3 |
| 20260508165606 | 68 | 270 | 1.0 | 3.0 | 0.00 | 0.00 | 0.00 | 44 | 1017.6 |
| 20260508164603 | 68 | 270 | 1.0 | 3.0 | 0.00 | 0.00 | 0.00 | 44 | 1017.7 |
| 20260508163559 | 70 | 270 | 0.0 | 2.0 | 0.00 | 0.00 | 0.00 | 44 | 1017.9 |
| 20260508162556 | 66 | 270 | 3.0 | 4.0 | 0.00 | 0.00 | 0.00 | 44 | 1018.0 |
| 20260508161553 | 68 | 270 | 1.0 | 3.0 | 0.00 | 0.00 | 0.00 | 44 | 1018.3 |
| 20260508160549 | 68 | 0.0 | 1.0 | 0.00 | 0.00 | 0.00 | 44 | 1018.3 | |
| 20260508155606 | 68 | 270 | 2.0 | 3.0 | 0.00 | 0.00 | 0.00 | 44 | 1018.5 |
| 20260508154543 | 67 | 270 | 0.0 | 1.0 | 0.00 | 0.00 | 0.00 | 44 | 1018.5 |
| 20260508153540 | 64 | 270 | 1.0 | 2.0 | 0.00 | 0.00 | 0.00 | 44 | 1018.6 |
| 20260508152536 | 62 | 270 | 1.0 | 3.0 | 0.00 | 0.00 | 0.00 | 44 | 1018.8 |
| 20260508151532 | 61 | 270 | 1.0 | 2.0 | 0.00 | 0.00 | 0.00 | 44 | 1018.8 |
| 20260508150529 | 60 | 270 | 1.0 | 2.0 | 0.00 | 0.00 | 0.00 | 44 | 1018.9 |
| 20260508145526 | 60 | 270 | 1.0 | 3.0 | 0.00 | 0.00 | 0.00 | 44 | 1018.9 |
| 20260508144522 | 59 | 270 | 0.0 | 1.0 | 0.00 | 0.00 | 0.00 | 43 | 1018.8 |
| 20260508143518 | 59 | 270 | 0.0 | 1.0 | 0.00 | 0.00 | 0.00 | 40 | 1018.8 |
| 20260508142615 | 58 | 270 | 1.0 | 2.0 | 0.00 | 0.00 | 0.00 | 40 | 1018.8 |
| 20260508141612 | 57 | 270 | 0.0 | 1.0 | 0.00 | 0.00 | 0.00 | 40 | 1018.9 |
| 20260508140608 | 57 | 0.0 | 0.0 | 0.00 | 0.00 | 0.00 | 40 | 1018.8 | |
| 20260508135605 | 57 | 0.0 | 0.0 | 0.00 | 0.00 | 0.00 | 40 | 1018.7 | |
| 20260508134602 | 55 | 270 | 1.0 | 2.0 | 0.00 | 0.00 | 0.00 | 40 | 1018.6 |
| 20260508133618 | 54 | 270 | 0.0 | 1.0 | 0.00 | 0.00 | 0.00 | 46 | 1018.6 |
| 20260508132559 | 53 | 0.0 | 1.0 | 0.00 | 0.00 | 0.00 | 50 | 1018.5 | |
| 20260508131551 | 52 | 0.0 | 0.0 | 0.00 | 0.00 | 0.00 | 51 | 1018.6 | |
| 20260508130608 | 51 | 0.0 | 0.0 | 0.00 | 0.00 | 0.00 | 51 | 1018.6 | |
| 20260508125545 | 50 | 0.0 | 0.0 | 0.00 | 0.01 | 0.00 | 55 | 1018.4 | |
| 20260508124541 | 49 | 0.0 | 0.0 | 0.00 | 0.02 | 0.00 | 58 | 1018.4 | |
| 20260508123538 | 48 | 0.0 | 0.0 | 0.00 | 0.02 | 0.00 | 57 | 1018.4 | |
| 20260508122535 | 47 | 0.0 | 0.0 | 0.00 | 0.04 | 0.00 | 60 | 1018.4 | |
| 20260508121531 | 46 | 0.0 | 0.0 | 0.00 | 0.05 | 0.00 | 65 | 1018.3 | |
| 20260508120528 | 45 | 0.0 | 0.0 | 0.00 | 0.07 | 0.00 | 77 | 1018.1 | |
| 20260508115524 | 44 | 0.0 | 0.0 | 0.00 | 0.07 | 0.00 | 77 | 1018.0 | |
| 20260508114521 | 44 | 0.0 | 0.0 | 0.00 | 0.08 | 0.00 | 76 | 1017.8 | |
| 20260508113518 | 43 | 0.0 | 0.0 | 0.00 | 0.09 | 0.00 | 76 | 1017.6 | |
| 20260508112614 | 43 | 0.0 | 0.0 | 0.00 | 0.11 | 0.00 | 75 | 1017.5 | |
| 20260508111611 | 43 | 0.0 | 0.0 | 0.00 | 0.11 | 0.00 | 75 | 1017.3 | |
| 20260508110608 | 42 | 270 | 0.0 | 1.0 | 0.00 | 0.11 | 0.00 | 75 | 1017.1 |
| 20260508105623 | 43 | 0.0 | 1.0 | 0.00 | 0.11 | 0.00 | 78 | 1017.1 | |
| 20260508104600 | 43 | 0.0 | 0.0 | 0.00 | 0.11 | 0.00 | 78 | 1017.0 | |
| 20260508103557 | 43 | 0.0 | 0.0 | 0.00 | 0.11 | 0.00 | 76 | 1016.8 | |
| 20260508102553 | 43 | 90 | 1.0 | 1.0 | 0.00 | 0.11 | 0.00 | 76 | 1016.5 |
| 20260508101550 | 43 | 90 | 1.0 | 2.0 | 0.00 | 0.11 | 0.00 | 78 | 1016.5 |
| 20260508100547 | 44 | 0 | 1.0 | 1.0 | 0.00 | 0.11 | 0.00 | 87 | 1016.5 |
| 20260508095543 | 44 | 0 | 1.0 | 1.0 | 0.00 | 0.11 | 0.00 | 89 | 1016.2 |
| 20260508094540 | 43 | 7 | 1.0 | 2.0 | 0.00 | 0.11 | 0.00 | 87 | 1016.0 |
| 20260508093616 | 44 | 0.0 | 0.0 | 0.00 | 0.11 | 0.00 | 87 | 1016.1 | |
| 20260508092533 | 44 | 0.0 | 0.0 | 0.00 | 0.11 | 0.00 | 87 | 1015.9 | |
| 20260508091530 | 44 | 26 | 1.0 | 2.0 | 0.00 | 0.11 | 0.00 | 85 | 1016.0 |
| 20260508090546 | 44 | 35 | 1.0 | 3.0 | 0.00 | 0.11 | 0.00 | 82 | 1015.9 |
| 20260508085523 | 44 | 0 | 0.0 | 2.0 | 0.00 | 0.11 | 0.00 | 79 | 1015.8 |
| 20260508084519 | 44 | 23 | 0.0 | 2.0 | 0.00 | 0.11 | 0.00 | 79 | 1015.8 |
| 20260508083516 | 45 | 0.0 | 0.0 | 0.00 | 0.11 | 0.00 | 80 | 1015.7 | |
| 20260508082613 | 45 | 0.0 | 0.0 | 0.00 | 0.11 | 0.00 | 83 | 1015.7 | |
| 20260508081609 | 46 | 0.0 | 0.0 | 0.00 | 0.11 | 0.00 | 77 | 1015.6 | |
| 20260508080606 | 45 | 0.0 | 0.0 | 0.00 | 0.11 | 0.00 | 82 | 1015.4 | |
| 20260508075642 | 46 | 0.0 | 0.0 | 0.00 | 0.11 | 0.00 | 78 | 1015.5 | |
| 20260508074618 | 46 | 0.0 | 0.0 | 0.00 | 0.11 | 0.00 | 78 | 1015.6 | |
| 20260508073556 | 46 | 0.0 | 0.0 | 0.00 | 0.11 | 0.00 | 78 | 1015.4 | |
| 20260508072552 | 46 | 0.0 | 0.0 | 0.00 | 0.11 | 0.00 | 77 | 1015.3 | |
| 20260508071549 | 46 | 90 | 0.0 | 1.0 | 0.00 | 0.11 | 0.00 | 76 | 1015.3 |
| 20260508070545 | 46 | 45 | 1.0 | 2.0 | 0.00 | 0.11 | 0.00 | 76 | 1015.2 |
| 20260508065541 | 46 | 0.0 | 0.0 | 0.00 | 0.12 | 0.00 | 76 | 1015.1 | |
| 20260508064538 | 46 | 0.0 | 0.0 | 0.00 | 0.15 | 0.00 | 76 | 1015.1 | |
| 20260508063534 | 46 | 0.0 | 0.0 | 0.00 | 0.15 | 0.00 | 75 | 1015.1 | |
| 20260508062531 | 46 | 90 | 1.0 | 1.0 | 0.00 | 0.15 | 0.00 | 75 | 1015.1 |
| 20260508061528 | 47 | 0.0 | 0.0 | 0.00 | 0.15 | 0.00 | 74 | 1015.1 | |
| 20260508060525 | 47 | 0.0 | 0.0 | 0.00 | 0.15 | 0.00 | 73 | 1015.2 | |
| 20260508055521 | 47 | 72 | 1.0 | 2.0 | 0.00 | 0.15 | 0.00 | 73 | 1015.2 |